Voltar ao catálogo

STARLINK-36753

AtivoComunicaçõesSSO
NORAD 67694·PAYLOAD·🇺🇸 United States

Lançado Feb 7, 2026 de Vandenberg Space Force Base

Loading…

Próximas Passagens (próximas 24 horas)

TLE

AtualizadoSource: CelesTrak SupGP

Época: Sep 15, 2026, 03:05 UTC

1 67694C 26025B   26258.12895833  .00008405  00000+0  26089-3 0  2581
2 67694  97.2854   8.0426 0000965  97.0168  80.9350 15.33437497    12

Acompanhe STARLINK-36753 em tempo real com AllMySat

Download on the App Store